Home   Weather   Ensenada   Past weeks

Flag for Mexico Past Weather in Ensenada, Baja California, Mexico — Yesterday and Last 2 Weeks

72 °F


Feels Like: 77 °F
Forecast: 60 / 77 °F
Wind: 13 mph from Northwest

Location: Tijuana International Airport

Current Time: Oct 25, 2016 at 2:06:14 PM

Latest Report: Oct 25, 2016 at 12:49 PM

Visibility: 6 mi

Pressure: 30.09 "Hg

Humidity: 53%

Dew Point: 54 °F

Location of EnsenadaLocation

Past Weather in Ensenada — Graph


Ensenada Temperature Yesterday

Maximum temperature yesterday: 73 °F (at 12:50 PM)
Minimum temperature yesterday: 61 °F (at 5:46 AM)
Average temperature yesterday: 65 °F

High & Low Weather Summary for the Past Weeks

High93 °F (Oct 20, 1:51 PM)88% (Oct 25, 5:51 AM)30.14 "Hg (Oct 25, 5:51 AM)
Low54 °F (Oct 13, 4:50 AM)6% (Oct 20, 2:48 PM)29.85 "Hg (Oct 21, 4:49 AM)
Average68 °F57%30.00 "Hg
* Reported Oct 10 12:51 PM — Oct 25 12:49 PM, Ensenada, Weather by CustomWeather, © 2016

Note: Actual official high and low records may vary slightly from our data, if they occured in-between our weather recording intervals... More about our weather records


Ensenada Weather History for the Previous 24 Hours

Scroll right to see more
Time TempWeatherWind HumidityBarometerVisibility
12:49 PM
Tue, Oct 25
72 °FSunny.13 mph53%30.09 "Hg6 mi
11:47 AM70 °FSunny.8 mph60%30.11 "Hg5 mi
10:47 AM68 °FSunny.5 mph60%30.12 "Hg5 mi
9:48 AM66 °FPassing clouds.6 mph68%30.14 "Hg5 mi
8:45 AM63 °FPassing clouds.3 mph83%30.14 "Hg5 mi
7:49 AM61 °FPassing clouds.No wind83%30.09 "Hg4 mi
6:45 AM59 °FPassing clouds.No wind82%30.12 "Hg4 mi
5:51 AM59 °FClear.No wind88%30.11 "Hg4 mi
4:51 AM61 °FPassing clouds.No wind83%30.09 "Hg4 mi
3:50 AM61 °FPassing clouds.No wind83%30.11 "Hg4 mi
2:46 AM63 °FPassing clouds.3 mph83%30.12 "Hg4 mi
1:48 AM63 °FMostly cloudy.5 mph83%30.14 "Hg4 mi
12:46 AM63 °FPartly cloudy.3 mph83%30.12 "Hg4 mi
11:46 PM
Mon, Oct 24
63 °FPartly cloudy.No wind83%30.13 "Hg4 mi
10:47 PM63 °FFog.5 mph83%30.13 "Hg3 mi
6:52 PM66 °FPartly cloudy.No wind73%30.08 "Hg5 mi
5:46 PM66 °FMostly cloudy.8 mph78%30.06 "Hg7 mi
2:51 PM70 °FCloudy.9 mph53%30.05 "Hg8 mi
Weather by CustomWeather, © 2016

See weather overviewHow to use our weather pages